Date String (YYYY-MM-DD hh:mm:ss) UTC,Instrument flags,Ambient pressure (hPa),Sample flow (lpm),Bypass flow (lpm),Sample temperature (°C),Ambient temperature (°C),ASC tube jacket temperature (°C),LED temperature (°C),Box temperature (°C),Sample RH (%),Span deviation,Mass concentration (μg/m³),Mass concentration (μg/m³),Mass concentration (μg/m³)
DateTimeUTC,F1_M11,P_M11,Q1_M11,Q2_M11,T1_M11,T2_M11,T3_M11,T4_M11,T5_M11,U1_M11,ZSPAN_M11,X0_M11,X2_M11,X1_M11
2023-01-04 11:00:00,,0818.0,5.00,0.00,22.3,20.6,00.0,31.3,23.9,10.6,0000.0,0013.00,0009.84,0009.75
2023-01-04 11:01:00,,0818.0,5.01,0.00,22.3,21.2,00.0,31.3,24.0,10.6,0000.0,0012.98,0009.82,0009.72
2023-01-04 11:02:00,,0818.1,5.01,0.00,22.5,22.3,00.0,31.2,24.3,10.6,0000.0,0012.78,0009.98,0009.89
2023-01-04 11:03:00,,0818.1,5.00,0.00,22.6,23.1,00.0,31.3,24.6,10.6,0000.0,0012.81,0010.10,0010.02
2023-01-04 11:04:00,,0818.1,5.00,0.00,22.7,22.8,00.0,31.3,24.6,10.5,0000.0,0012.75,0010.00,0009.90
2023-01-04 11:05:00,,0818.2,5.00,0.00,22.7,22.2,00.0,31.4,24.5,10.3,0000.0,0012.94,0010.18,0010.08
2023-01-04 11:06:00,,0818.0,5.01,0.00,22.6,21.8,00.0,31.4,24.4,10.1,0000.0,0013.22,0010.28,0010.19
2023-01-04 11:07:00,,0818.1,5.00,0.00,22.6,21.5,00.0,31.4,24.3,10.0,0000.0,0013.46,0010.21,0010.12
2023-01-04 11:08:00,,0818.2,5.01,0.00,22.6,21.3,00.0,31.4,24.3,10.1,0000.0,0013.37,0010.10,0010.01
2023-01-04 11:09:00,,0818.3,5.00,0.00,22.6,21.1,00.0,31.4,24.2,10.2,0000.0,0013.19,0009.89,0009.80
2023-01-04 11:10:00,,0818.0,5.01,0.00,22.5,21.0,00.0,31.4,24.1,10.1,0000.0,0012.76,0009.53,0009.43
2023-01-04 11:11:00,,0818.0,5.00,0.00,22.5,20.8,00.0,31.4,24.1,10.1,0000.0,0011.89,0009.00,0008.90
2023-01-04 11:12:00,,0818.0,5.00,0.00,22.4,20.7,00.0,31.3,24.0,10.1,0000.0,0011.25,0008.36,0008.23
2023-01-04 11:13:00,,0818.0,5.00,0.00,22.4,21.0,00.0,31.3,24.1,10.0,0000.0,0010.63,0007.73,0007.61
2023-01-04 11:14:00,,0818.0,4.99,0.00,22.5,22.1,00.0,31.3,24.3,10.0,0000.0,0010.01,0007.09,0006.96
2023-01-04 11:15:00,,0818.0,5.00,0.00,22.6,23.0,00.0,31.3,24.6,10.1,0000.0,0009.27,0006.40,0006.31
2023-01-04 11:16:00,,0818.0,4.98,0.00,22.7,22.9,00.0,31.4,24.6,10.1,0000.0,0008.62,0005.83,0005.72
2023-01-04 11:17:00,,0818.0,5.01,0.00,22.7,22.4,00.0,31.4,24.5,10.1,0000.0,0008.62,0005.62,0005.48
2023-01-04 11:18:00,,0818.0,5.00,0.00,22.7,22.0,00.0,31.4,24.4,10.1,0000.0,0008.37,0005.61,0005.47
2023-01-04 11:19:00,,0818.0,5.00,0.00,22.6,21.5,00.0,31.4,24.2,10.6,0000.0,0008.59,0005.82,0005.66
2023-01-04 11:20:00,,0818.0,5.00,0.00,22.6,21.1,00.0,31.4,24.1,10.6,0000.0,0008.88,0006.07,0005.91
2023-01-04 11:21:00,,0818.2,5.00,0.00,22.5,20.8,00.0,31.4,24.0,10.2,0000.0,0008.63,0005.84,0005.70
2023-01-04 11:22:00,,0818.1,5.01,0.00,22.4,20.7,00.0,31.4,24.0,09.9,0000.0,0008.32,0005.55,0005.43
2023-01-04 11:23:00,,0818.2,5.01,0.00,22.4,20.6,00.0,31.4,24.0,09.9,0000.0,0008.28,0005.53,0005.40
2023-01-04 11:24:00,,0818.2,5.00,0.00,22.4,20.6,00.0,31.3,24.0,09.9,0000.0,0008.41,0005.67,0005.54
2023-01-04 11:25:00,,0818.0,5.01,0.00,22.4,20.6,00.0,31.3,24.0,09.8,0000.0,0008.51,0005.81,0005.69
2023-01-04 11:26:00,,0818.0,5.01,0.00,22.3,20.7,00.0,31.3,24.0,09.6,0000.0,0008.58,0005.88,0005.78
2023-01-04 11:27:00,,0818.0,5.01,0.00,22.4,21.7,00.0,31.2,24.2,09.7,0000.0,0008.60,0005.87,0005.75
2023-01-04 11:28:00,,0818.0,5.00,0.00,22.5,22.7,00.0,31.2,24.5,09.7,0000.0,0008.37,0005.90,0005.80
2023-01-04 11:29:00,,0818.0,5.00,0.00,22.6,23.1,00.0,31.3,24.7,09.4,0000.0,0008.60,0005.73,0005.64
2023-01-04 11:30:00,,0818.0,4.99,0.00,22.7,22.6,00.0,31.3,24.6,09.1,0000.0,0008.01,0005.23,0005.17
2023-01-04 11:31:00,,0818.0,5.00,0.00,22.7,22.1,00.0,31.4,24.4,09.3,0000.0,0007.41,0004.70,0004.64
2023-01-04 11:32:00,,0818.1,5.01,0.00,22.6,21.6,00.0,31.4,24.2,09.2,0000.0,0007.35,0004.63,0004.56
2023-01-04 11:33:00,,0818.4,5.01,0.00,22.6,21.3,00.0,31.4,24.1,08.9,0000.0,0007.21,0004.52,0004.45
2023-01-04 11:34:00,,0818.4,5.01,0.00,22.5,21.0,00.0,31.4,24.1,09.1,0000.0,0006.95,0004.40,0004.34
2023-01-04 11:35:00,,0818.4,5.00,0.00,22.5,20.9,00.0,31.4,24.1,09.1,0000.0,0006.59,0004.20,0004.14
2023-01-04 11:36:00,,0818.3,5.00,0.00,22.4,20.7,00.0,31.3,24.0,08.7,0000.0,0006.13,0003.95,0003.89
2023-01-04 11:37:00,,0818.3,4.98,0.00,22.4,20.7,00.0,31.3,24.0,08.7,0000.0,0005.73,0003.75,0003.69
2023-01-04 11:38:00,,0818.3,5.00,0.00,22.4,20.6,00.0,31.3,24.0,08.7,0000.0,0005.39,0003.59,0003.54
2023-01-04 11:39:00,,0818.3,5.00,0.00,22.3,20.8,00.0,31.3,24.0,08.6,0000.0,0004.89,0003.34,0003.30
2023-01-04 11:40:00,,0818.4,5.01,0.00,22.4,21.8,00.0,31.2,24.2,08.7,0000.0,0003.86,0003.21,0003.15
2023-01-04 11:41:00,,0818.4,5.01,0.00,22.5,22.8,00.0,31.2,24.5,08.6,0000.0,0003.84,0003.13,0003.02
2023-01-04 11:42:00,,0818.4,5.00,0.00,22.6,23.0,00.0,31.3,24.6,08.5,0000.0,0003.43,0002.73,0002.61
2023-01-04 11:43:00,,0818.4,4.98,0.00,22.7,22.5,00.0,31.3,24.6,08.6,0000.0,0003.00,0002.34,0002.21
2023-01-04 11:44:00,,0818.4,5.00,0.00,22.7,22.2,00.0,31.4,24.5,08.6,0000.0,0002.99,0002.34,0002.18
2023-01-04 11:45:00,,0818.4,5.00,0.00,22.7,21.8,00.0,31.4,24.4,08.5,0000.0,0002.82,0002.15,0002.00
2023-01-04 11:46:00,,0818.5,5.00,0.00,22.6,21.5,00.0,31.4,24.4,08.3,0000.0,0002.67,0002.01,0001.85
2023-01-04 11:47:00,,0818.5,5.00,0.00,22.6,21.4,00.0,31.4,24.3,08.2,0000.0,0003.10,0002.08,0001.89
2023-01-04 11:48:00,,0818.4,5.00,0.00,22.6,21.2,00.0,31.4,24.3,08.3,0000.0,0003.77,0002.18,0001.96
2023-01-04 11:49:00,,0818.4,5.00,0.00,22.6,21.1,00.0,31.4,24.2,08.4,0000.0,0004.01,0002.33,0002.11
2023-01-04 11:50:00,,0818.4,5.01,0.00,22.6,21.1,00.0,31.4,24.2,08.3,0000.0,0004.06,0002.43,0002.20
2023-01-04 11:51:00,,0818.4,5.01,0.00,22.5,21.0,00.0,31.4,24.2,08.4,0000.0,0004.05,0002.51,0002.28
2023-01-04 11:52:00,,0818.4,5.01,0.00,22.5,21.0,00.0,31.4,24.2,08.1,0000.0,0003.91,0002.50,0002.30
2023-01-04 11:53:00,,0818.4,5.02,0.00,22.5,21.0,00.0,31.4,24.1,07.9,0000.0,0003.91,0002.51,0002.31
2023-01-04 11:54:00,,0818.5,4.99,0.00,22.5,20.9,00.0,31.4,24.0,07.9,0000.0,0003.89,0002.46,0002.23
2023-01-04 11:55:00,,0818.4,4.98,0.00,22.4,20.7,00.0,31.4,23.9,07.9,0000.0,0003.77,0002.36,0002.17
2023-01-04 11:56:00,,0818.4,5.00,0.00,22.4,20.5,00.0,31.3,23.8,07.9,0000.0,0003.88,0002.30,0002.09
2023-01-04 11:57:00,,0818.4,5.01,0.00,22.4,21.1,00.0,31.3,24.0,07.9,0000.0,0003.88,0002.23,0001.99
2023-01-04 11:58:00,,0818.5,4.99,0.00,22.5,22.2,00.0,31.2,24.3,07.7,0000.0,0003.44,0002.13,0001.92
2023-01-04 11:59:00,,0818.5,5.00,0.00,22.6,22.9,00.0,31.3,24.5,07.6,0000.0,0002.76,0002.02,0001.83
